Jackson, WY

1:39 AM MST on December 08, 2019 (GMT -0700)
Jackson Hole

Weather History for KJAC - October, 2019

Change the Weather History Date:

Tuesday, October 1, 2019

  Actual Average Record
Temperature  
Mean Temperature 39 °F -  
Max Temperature 51 °F 64 °F 81 °F (1990)
Min Temperature 27 °F 27 °F 15 °F (1985)
Degree Days  
Heating Degree Days 26    
Moisture  
Dew Point 26 °F    
Average Humidity 73    
Maximum Humidity 96    
Minimum Humidity 31    
Precipitation  
Precipitation 0.00 in - - ()
Sea Level Pressure  
Sea Level Pressure 30.00 in    
Wind  
Wind Speed 3 mph ()    
Max Wind Speed 12 mph    
Max Gust Speed 16 mph    
Visibility 10.0 miles    
Events Rain    
Averages and records for this station are not official NWS values.
T = Trace of Precipitation, MM = Missing Value Source: Averaged Metar Reports

Daily Weather History Graph

Daily Weather History Graph

Search for Another Location

Airport or City:

Astronomy

Oct. 01, 2019 Rise Set
Actual Time 7:20 AM MDT 7:04 PM MDT
Civil Twilight 6:51 AM MDT 7:32 PM MDT
Nautical Twilight 6:18 AM MDT 8:05 PM MDT
Astronomical Twilight 5:44 AM MDT 8:39 PM MDT
Moon 10:45 AM MDT (10/1) 9:13 PM MDT (10/1)
Length of Visible Light 12h 41m
Length of Day
11h 43m
Waxing Crescent, 12% of the Moon is Illuminated
Oct 1
Waxing Crescent
Oct 5
First Quarter
Oct 13
Full
Oct 21
Last Quarter
Oct 27
New

Hourly Weather History & Observations

Time (MDT) Temp. Windchill Dew Point Humidity Pressure Visibility Wind Dir Wind Speed Gust Speed Precip Events Conditions
12:56 AM 27.0 °F 21.6 °F 25.0 °F 92% 30.02 in 10.0 mi NNE 4.6 mph - N/A   Partly Cloudy
1:56 AM 28.0 °F 22.8 °F 26.1 °F 92% 30.01 in 10.0 mi ENE 4.6 mph - N/A   Mostly Cloudy
2:56 AM 28.9 °F - 27.0 °F 92% 30.01 in 10.0 mi Calm Calm - N/A   Overcast
3:56 AM 28.9 °F - 27.0 °F 92% 30.01 in 10.0 mi Calm Calm - N/A   Overcast
4:25 AM 28.4 °F - 26.6 °F 93% 29.97 in 10.0 mi Calm Calm - N/A   Overcast
4:33 AM 28.4 °F 24.6 °F 26.6 °F 93% 29.98 in 10.0 mi NNW 3.5 mph - N/A   Overcast
4:51 AM 28.4 °F 24.6 °F 26.6 °F 93% 29.97 in 10.0 mi NNW 3.5 mph - N/A   Overcast
4:56 AM 28.0 °F 24.2 °F 26.1 °F 92% 30.01 in 10.0 mi North 3.5 mph - N/A   Overcast
5:56 AM 28.9 °F - 27.0 °F 92% 30.01 in 10.0 mi Calm Calm - N/A   Overcast
6:56 AM 28.0 °F 24.2 °F 25.0 °F 88% 30.04 in 10.0 mi North 3.5 mph - N/A   Overcast
7:01 AM 28.4 °F - 24.8 °F 86% 29.98 in 10.0 mi Calm Calm - N/A   Overcast
7:56 AM 28.0 °F - 27.0 °F 96% 30.06 in 10.0 mi Calm Calm - N/A   Overcast
8:56 AM 36.0 °F - 30.0 °F 79% 30.04 in 10.0 mi Calm Calm - N/A   Partly Cloudy
9:56 AM 36.0 °F - 28.0 °F 73% 30.06 in 10.0 mi Calm Calm - N/A   Clear
10:56 AM 41.0 °F - 28.9 °F 62% 30.03 in 10.0 mi Calm Calm - N/A   Partly Cloudy
11:56 AM 45.0 °F 43.5 °F 26.1 °F 48% 30.00 in 10.0 mi Variable 3.5 mph - N/A   Mostly Cloudy
12:56 PM 46.0 °F 42.5 °F 25.0 °F 44% 29.99 in 10.0 mi West 6.9 mph - N/A   Overcast
1:56 PM 50.0 °F - 21.0 °F 32% 29.96 in 10.0 mi SW 9.2 mph - N/A   Clear
2:56 PM 48.9 °F - 23.0 °F 36% 29.94 in 10.0 mi West 10.4 mph - N/A   Mostly Cloudy
3:56 PM 51.1 °F - 21.0 °F 31% 29.93 in 10.0 mi South 6.9 mph 16.1 mph N/A   Mostly Cloudy
4:56 PM 50.0 °F - 21.9 °F 33% 29.95 in 10.0 mi SW 8.1 mph 16.1 mph N/A   Scattered Clouds
5:56 PM 48.0 °F - 23.0 °F 37% 29.96 in 10.0 mi WSW 5.8 mph - N/A   Clear
6:56 PM 42.1 °F 38.4 °F 24.1 °F 49% 30.01 in 10.0 mi West 5.8 mph - N/A   Scattered Clouds
7:56 PM 39.0 °F 33.4 °F 28.9 °F 67% 30.04 in 10.0 mi North 8.1 mph - N/A   Clear
8:56 PM 36.0 °F 28.0 °F 28.9 °F 76% 30.03 in 10.0 mi North 11.5 mph - N/A   Clear
9:56 PM 34.0 °F 28.0 °F 28.0 °F 79% 30.05 in 10.0 mi North 6.9 mph - N/A   Clear
10:56 PM 35.1 °F 31.0 °F 28.9 °F 78% 30.03 in 10.0 mi NNW 4.6 mph - N/A   Overcast
11:16 PM 35.6 °F 29.2 °F 30.2 °F 81% 29.99 in 10.0 mi NNW 8.1 mph - 0.00 in Rain Light Rain
11:25 PM 35.6 °F 29.2 °F 32.0 °F 87% 29.99 in 10.0 mi North 8.1 mph - 0.00 in Rain Light Rain
11:56 PM 35.1 °F - 30.9 °F 85% 30.00 in 10.0 mi Calm Calm - 0.00 in   Overcast